Simultaneous Nadir Overpasses (SNOs) Predictions

Prediction of SNOs between NOAA-19 and NPP Satellite Orbit:

Table of predicted SNOs for the next 14.0 days since TLE Epoch: 8/12/2023
Index Date (NOAA-19) Time (NOAA-19) Lat,Lon (NOAA-19) SZA (NOAA-19 ) Date (NPP) Time (NPP) Lat,Lon (NPP) SZA (NPP ) Distance(km) Time Diff (sec)
1 08/24/2023 03:42:44 -74.21, -70.42 116.47 08/24/2023 03:43:49 -74.27, -67.14 116.66 99.36 65
2 08/24/2023 04:33:31 74.55, 97.78 63.81 08/24/2023 04:34:41 74.58, 99.36 63.71 46.68 70
3 08/24/2023 05:24:29 -74.87, -94.06 115.94 08/24/2023 05:25:31 -74.86, -94.08 115.97 1.45 62
4 08/24/2023 06:15:23 74.88, 73.24 64.08 08/24/2023 06:16:17 74.88, 73.17 64.07 1.84 54
5 08/24/2023 07:06:28 -74.86,-119.57 115.92 08/24/2023 07:07:01 -74.86,-119.47 115.94 2.89 33
6 08/24/2023 07:57:22 74.87, 47.73 64.10 08/24/2023 07:57:47 74.88, 47.78 64.10 2.06 25
7 08/24/2023 08:48:26 -74.91,-144.94 115.87 08/24/2023 08:48:32 -74.92,-145.00 115.85 2.12 6
8 08/24/2023 09:39:20 74.91, 22.36 64.16 08/24/2023 09:39:17 74.89, 22.39 64.13 2.63 3
9 08/24/2023 10:30:25 -74.90,-170.44 115.85 08/24/2023 10:30:02 -74.92,-170.39 115.82 2.89 23
10 08/24/2023 11:21:18 74.95, -3.01 64.21 08/24/2023 11:20:48 74.94, -3.14 64.22 3.99 30
11 08/24/2023 12:12:23 -74.94, 164.19 115.79 08/24/2023 12:11:32 -74.93, 164.22 115.79 1.72 51
12 08/24/2023 13:03:17 74.95, -28.52 64.23 08/24/2023 13:02:18 74.95, -28.53 64.25 0.57 59
13 08/24/2023 13:54:19 -75.08, 139.11 115.66 08/24/2023 13:53:05 -75.08, 138.42 115.59 19.75 74
14 08/24/2023 14:45:05 75.45, -52.42 64.65 08/24/2023 14:43:58 75.43, -55.33 64.84 81.28 67



Historial Predications of SNOs between NOAA-19 and NPP
